Time,TemperatureF,DewpointF,PressureIn,WindDirection,WindDirectionDegrees,WindSpeedMPH,WindSpeedGustMPH,Humidity,HourlyPrecipIn,Conditions,Clouds,dailyrainin,SolarRadiationWatts/m^2,SoftwareType,DateUTC
2013-12-04 00:01:00,21.0,11.0,-100.00,NNW,340,9.0,11.0,66,0.00,,,0.00,0.000000,,2013-12-04 08:01:00,
2013-12-04 00:11:00,21.0,11.0,-100.00,NNW,340,9.0,11.0,66,0.00,,,0.00,0.000000,,2013-12-04 08:11:00,
2013-12-04 00:21:00,21.0,11.0,-100.00,NNW,340,9.0,11.0,66,0.00,,,0.00,0.000000,,2013-12-04 08:21:00,
2013-12-04 00:52:00,22.0,13.0,-100.00,North,358,12.0,16.0,67,0.00,,,0.00,0.000000,,2013-12-04 08:52:00,
2013-12-04 01:02:00,22.0,13.0,-100.00,North,358,12.0,16.0,67,0.00,,,0.00,0.000000,,2013-12-04 09:02:00,
2013-12-04 01:11:00,22.0,13.0,-100.00,North,358,12.0,16.0,67,0.00,,,0.00,0.000000,,2013-12-04 09:11:00,
2013-12-04 01:22:00,22.0,13.0,-100.00,North,358,12.0,16.0,67,0.00,,,0.00,0.000000,,2013-12-04 09:22:00,
2013-12-04 01:53:00,20.0,12.0,-100.00,North,8,10.0,16.0,71,0.00,,,0.00,0.000000,,2013-12-04 09:53:00,
2013-12-04 02:03:00,20.0,12.0,-100.00,North,8,10.0,16.0,71,0.00,,,0.00,0.000000,,2013-12-04 10:03:00,
2013-12-04 02:12:00,20.0,12.0,-100.00,North,8,10.0,16.0,71,0.00,,,0.00,0.000000,,2013-12-04 10:12:00,
2013-12-04 02:23:00,20.0,12.0,-100.00,North,8,10.0,16.0,71,0.00,,,0.00,0.000000,,2013-12-04 10:23:00,
2013-12-04 03:12:00,20.0,12.0,-100.00,North,4,9.0,13.0,70,0.00,,,0.00,0.000000,,2013-12-04 11:12:00,
2013-12-04 03:22:00,20.0,12.0,-100.00,North,4,9.0,13.0,70,0.00,,,0.00,0.000000,,2013-12-04 11:22:00,
2013-12-04 03:53:00,18.0,11.0,-100.00,NNE,13,9.0,12.0,72,0.00,,,0.00,0.000000,,2013-12-04 11:53:00,
2013-12-04 04:02:00,18.0,11.0,-100.00,NNE,13,9.0,12.0,72,0.00,,,0.00,0.000000,,2013-12-04 12:02:00,
2013-12-04 04:12:00,18.0,11.0,-100.00,NNE,13,9.0,12.0,72,0.00,,,0.00,0.000000,,2013-12-04 12:12:00,
2013-12-04 04:22:00,18.0,11.0,-100.00,NNE,13,9.0,12.0,72,0.00,,,0.00,0.000000,,2013-12-04 12:22:00,
2013-12-04 04:52:00,19.0,10.0,-100.00,North,5,8.0,11.0,67,0.00,,,0.00,0.000000,,2013-12-04 12:52:00,
2013-12-04 05:02:00,19.0,10.0,-100.00,North,5,8.0,11.0,67,0.00,,,0.00,0.000000,,2013-12-04 13:02:00,
2013-12-04 05:11:00,19.0,10.0,-100.00,North,5,8.0,11.0,67,0.00,,,0.00,0.000000,,2013-12-04 13:11:00,
2013-12-04 05:22:00,19.0,10.0,-100.00,North,5,8.0,11.0,67,0.00,,,0.00,0.000000,,2013-12-04 13:22:00,
2013-12-04 05:52:00,18.0,10.0,-100.00,North,9,7.0,10.0,69,0.00,,,0.00,0.000000,,2013-12-04 13:52:00,
2013-12-04 06:02:00,18.0,10.0,-100.00,North,9,7.0,10.0,69,0.00,,,0.00,0.000000,,2013-12-04 14:02:00,
2013-12-04 06:12:00,18.0,10.0,-100.00,North,9,7.0,10.0,69,0.00,,,0.00,0.000000,,2013-12-04 14:12:00,
2013-12-04 06:21:00,18.0,10.0,-100.00,North,9,7.0,10.0,69,0.00,,,0.00,0.000000,,2013-12-04 14:21:00,
2013-12-04 06:52:00,18.0,10.0,-100.00,North,5,8.0,12.0,70,0.00,,,0.00,0.000000,,2013-12-04 14:52:00,
2013-12-04 07:02:00,18.0,10.0,-100.00,North,5,8.0,12.0,70,0.00,,,0.00,0.000000,,2013-12-04 15:02:00,
2013-12-04 07:11:00,18.0,10.0,-100.00,North,5,8.0,12.0,70,0.00,,,0.00,0.000000,,2013-12-04 15:11:00,
2013-12-04 07:22:00,18.0,10.0,-100.00,North,5,8.0,12.0,70,0.00,,,0.00,0.000000,,2013-12-04 15:22:00,
2013-12-04 07:53:00,17.0,10.0,-100.00,NNE,26,6.0,11.0,72,0.00,,,0.00,1.000000,,2013-12-04 15:53:00,
2013-12-04 08:03:00,17.0,10.0,-100.00,NNE,26,6.0,11.0,72,0.00,,,0.00,1.000000,,2013-12-04 16:03:00,
2013-12-04 08:13:00,17.0,10.0,-100.00,NNE,26,6.0,11.0,72,0.00,,,0.00,1.000000,,2013-12-04 16:13:00,
2013-12-04 08:23:00,17.0,10.0,-100.00,NNE,26,6.0,11.0,72,0.00,,,0.00,1.000000,,2013-12-04 16:23:00,
2013-12-04 08:53:00,21.0,11.0,-100.00,South,172,4.0,14.0,64,0.00,,,0.00,64.000000,,2013-12-04 16:53:00,
2013-12-04 09:03:00,21.0,11.0,-100.00,South,172,4.0,14.0,64,0.00,,,0.00,64.000000,,2013-12-04 17:03:00,
2013-12-04 09:12:00,21.0,11.0,-100.00,South,172,4.0,14.0,64,0.00,,,0.00,64.000000,,2013-12-04 17:12:00,
2013-12-04 09:22:00,21.0,11.0,-100.00,South,172,4.0,14.0,64,0.00,,,0.00,64.000000,,2013-12-04 17:22:00,
2013-12-04 09:52:00,22.0,11.0,-100.00,SSW,208,5.0,7.0,62,0.00,,,0.00,204.000000,,2013-12-04 17:52:00,
2013-12-04 10:02:00,22.0,11.0,-100.00,SSW,208,5.0,7.0,62,0.00,,,0.00,204.000000,,2013-12-04 18:02:00,
2013-12-04 10:12:00,22.0,11.0,-100.00,SSW,208,5.0,7.0,62,0.00,,,0.00,204.000000,,2013-12-04 18:12:00,
2013-12-04 10:22:00,22.0,11.0,-100.00,SSW,208,5.0,7.0,62,0.00,,,0.00,204.000000,,2013-12-04 18:22:00,
2013-12-04 10:52:00,26.0,10.0,-100.00,NE,40,3.0,7.0,51,0.00,,,0.00,309.000000,,2013-12-04 18:52:00,
2013-12-04 11:02:00,26.0,10.0,-100.00,NE,40,3.0,7.0,51,0.00,,,0.00,309.000000,,2013-12-04 19:02:00,
2013-12-04 11:11:00,26.0,10.0,-100.00,NE,40,3.0,7.0,51,0.00,,,0.00,309.000000,,2013-12-04 19:11:00,
2013-12-04 11:21:00,26.0,10.0,-100.00,NE,40,3.0,7.0,51,0.00,,,0.00,309.000000,,2013-12-04 19:21:00,
2013-12-04 11:52:00,27.0,10.0,-100.00,NNE,19,8.0,13.0,48,0.00,,,0.00,373.000000,,2013-12-04 19:52:00,
2013-12-04 12:01:00,27.0,10.0,-100.00,NNE,19,8.0,13.0,48,0.00,,,0.00,373.000000,,2013-12-04 20:01:00,
2013-12-04 12:12:00,27.0,10.0,-100.00,NNE,19,8.0,13.0,48,0.00,,,0.00,373.000000,,2013-12-04 20:12:00,
2013-12-04 12:22:00,27.0,10.0,-100.00,NNE,19,8.0,13.0,48,0.00,,,0.00,373.000000,,2013-12-04 20:22:00,
2013-12-04 12:52:00,30.0,9.0,-100.00,NNE,20,8.0,11.0,41,0.00,,,0.00,383.000000,,2013-12-04 20:52:00,
2013-12-04 13:02:00,30.0,9.0,-100.00,NNE,20,8.0,11.0,41,0.00,,,0.00,383.000000,,2013-12-04 21:02:00,
2013-12-04 13:11:00,30.0,9.0,-100.00,NNE,20,8.0,11.0,41,0.00,,,0.00,383.000000,,2013-12-04 21:11:00,
2013-12-04 13:21:00,30.0,9.0,-100.00,NNE,20,8.0,11.0,41,0.00,,,0.00,383.000000,,2013-12-04 21:21:00,
2013-12-04 13:54:00,31.0,7.0,-100.00,NE,38,6.0,11.0,36,0.00,,,0.00,337.000000,,2013-12-04 21:54:00,
2013-12-04 14:03:00,31.0,7.0,-100.00,NE,38,6.0,11.0,36,0.00,,,0.00,337.000000,,2013-12-04 22:03:00,
2013-12-04 14:14:00,31.0,7.0,-100.00,NE,38,6.0,11.0,36,0.00,,,0.00,337.000000,,2013-12-04 22:14:00,
2013-12-04 14:23:00,31.0,7.0,-100.00,NE,38,6.0,11.0,36,0.00,,,0.00,337.000000,,2013-12-04 22:23:00,
2013-12-04 14:53:00,30.0,3.0,-100.00,NE,47,7.0,14.0,31,0.00,,,0.00,247.000000,,2013-12-04 22:53:00,
2013-12-04 15:02:00,30.0,3.0,-100.00,NE,47,7.0,14.0,31,0.00,,,0.00,247.000000,,2013-12-04 23:02:00,
2013-12-04 15:12:00,30.0,3.0,-100.00,NE,47,7.0,14.0,31,0.00,,,0.00,247.000000,,2013-12-04 23:12:00,
2013-12-04 15:22:00,30.0,3.0,-100.00,NE,47,7.0,14.0,31,0.00,,,0.00,247.000000,,2013-12-04 23:22:00,
2013-12-04 15:53:00,29.0,4.0,-100.00,NE,47,5.0,9.0,34,0.00,,,0.00,121.000000,,2013-12-04 23:53:00,
2013-12-04 16:02:00,29.0,4.0,-100.00,NE,47,5.0,9.0,34,0.00,,,0.00,121.000000,,2013-12-05 00:02:00,
2013-12-04 16:11:00,29.0,4.0,-100.00,NE,47,5.0,9.0,34,0.00,,,0.00,121.000000,,2013-12-05 00:11:00,
2013-12-04 16:22:00,29.0,4.0,-100.00,NE,47,5.0,9.0,34,0.00,,,0.00,121.000000,,2013-12-05 00:22:00,
2013-12-04 17:11:00,22.0,4.0,-100.00,ENE,77,1.0,4.0,46,0.00,,,-99.99,15.000000,,2013-12-05 01:11:00,
2013-12-04 17:21:00,22.0,4.0,-100.00,ENE,77,1.0,4.0,46,0.00,,,-99.99,15.000000,,2013-12-05 01:21:00,
2013-12-04 17:52:00,21.0,4.0,-100.00,SW,225,2.0,4.0,47,0.00,,,0.00,0.000000,,2013-12-05 01:52:00,
2013-12-04 18:02:00,21.0,4.0,-100.00,SW,225,2.0,4.0,47,0.00,,,0.00,0.000000,,2013-12-05 02:02:00,
2013-12-04 18:11:00,21.0,4.0,-100.00,SW,225,2.0,4.0,47,0.00,,,0.00,0.000000,,2013-12-05 02:11:00,
2013-12-04 18:22:00,21.0,4.0,-100.00,SW,225,2.0,4.0,47,0.00,,,0.00,0.000000,,2013-12-05 02:22:00,
2013-12-04 19:12:00,18.0,6.0,-100.00,ENE,60,4.0,7.0,59,0.00,,,0.00,0.000000,,2013-12-05 03:12:00,
2013-12-04 19:21:00,18.0,6.0,-100.00,ENE,60,4.0,7.0,59,0.00,,,0.00,0.000000,,2013-12-05 03:21:00,
2013-12-04 19:54:00,16.0,5.0,-100.00,WNW,289,2.0,5.0,62,0.00,,,0.00,0.000000,,2013-12-05 03:54:00,
2013-12-04 20:04:00,16.0,5.0,-100.00,WNW,289,2.0,5.0,62,0.00,,,0.00,0.000000,,2013-12-05 04:04:00,
2013-12-04 20:13:00,16.0,5.0,-100.00,WNW,289,2.0,5.0,62,0.00,,,0.00,0.000000,,2013-12-05 04:13:00,
2013-12-04 20:23:00,16.0,5.0,-100.00,WNW,289,2.0,5.0,62,0.00,,,0.00,0.000000,,2013-12-05 04:23:00,
2013-12-04 20:53:00,14.0,6.0,-100.00,North,11,5.0,6.0,71,0.00,,,0.00,0.000000,,2013-12-05 04:53:00,
2013-12-04 21:02:00,14.0,6.0,-100.00,North,11,5.0,6.0,71,0.00,,,0.00,0.000000,,2013-12-05 05:02:00,
2013-12-04 21:12:00,14.0,6.0,-100.00,North,11,5.0,6.0,71,0.00,,,0.00,0.000000,,2013-12-05 05:12:00,
2013-12-04 21:23:00,14.0,6.0,-100.00,North,11,5.0,6.0,71,0.00,,,0.00,0.000000,,2013-12-05 05:23:00,
2013-12-04 21:53:00,14.0,6.0,-100.00,NNE,23,3.0,5.0,71,0.00,,,0.00,0.000000,,2013-12-05 05:53:00,
2013-12-04 22:02:00,14.0,6.0,-100.00,NNE,23,3.0,5.0,71,0.00,,,0.00,0.000000,,2013-12-05 06:02:00,
2013-12-04 22:12:00,14.0,6.0,-100.00,NNE,23,3.0,5.0,71,0.00,,,0.00,0.000000,,2013-12-05 06:12:00,
2013-12-04 22:22:00,14.0,6.0,-100.00,NNE,23,3.0,5.0,71,0.00,,,0.00,0.000000,,2013-12-05 06:22:00,
2013-12-04 22:52:00,14.0,5.0,-100.00,North,354,3.0,6.0,67,0.00,,,0.00,0.000000,,2013-12-05 06:52:00,
2013-12-04 23:02:00,14.0,5.0,-100.00,North,354,3.0,6.0,67,0.00,,,0.00,0.000000,,2013-12-05 07:02:00,
2013-12-04 23:12:00,14.0,5.0,-100.00,North,354,3.0,6.0,67,0.00,,,0.00,0.000000,,2013-12-05 07:12:00,
2013-12-04 23:21:00,14.0,5.0,-100.00,North,354,3.0,6.0,67,0.00,,,0.00,0.000000,,2013-12-05 07:21:00,
2013-12-04 23:52:00,10.0,3.0,-100.00,North,0,0.0,6.0,73,0.00,,,0.00,0.000000,,2013-12-05 07:52:00,